Date,TemperatureHighF,TemperatureAvgF,TemperatureLowF,DewpointHighF,DewpointAvgF,DewpointLowF,HumidityHigh,HumidityAvg,HumidityLow,PressureMaxIn,PressureMinIn,WindSpeedMaxMPH,WindSpeedAvgMPH,GustSpeedMaxMPH,PrecipitationSumIn
2013-6-1,78,59,44,61,53,43,99,84,43,0.00,40.00,6,3,16,0.73
2013-6-2,57,44,37,42,36,-100,97,82,43,0.00,40.00,10,7,26,0.67
2013-6-3,61,47,31,37,33,28,98,65,32,0.00,40.00,10,3,21,0.01
2013-6-4,65,51,34,41,33,30,90,55,29,0.00,40.00,5,2,11,0.00
2013-6-5,53,50,47,48,45,40,94,82,67,0.00,40.00,5,2,10,0.05
2013-6-6,57,50,46,46,44,39,98,82,50,0.00,40.00,4,2,10,0.16
2013-6-7,72,57,44,45,39,34,88,58,27,0.00,40.00,5,2,13,0.01
2013-6-8,74,59,44,50,41,34,80,55,27,0.00,40.00,5,2,13,0.00
2013-6-9,71,60,42,52,46,41,96,64,42,0.00,40.00,8,4,17,0.00
2013-6-10,78,68,58,64,56,49,86,65,49,0.00,40.00,7,4,17,0.00
2013-6-11,77,64,54,61,58,53,99,82,58,0.00,40.00,7,3,13,0.01
2013-6-12,80,65,48,57,50,47,99,65,34,0.00,40.00,5,2,15,0.01
2013-6-13,64,56,50,50,47,42,90,73,56,0.00,40.00,9,5,22,0.00
2013-6-14,73,59,41,42,37,32,89,48,22,0.00,40.00,5,3,12,0.00
2013-6-15,74,62,50,63,53,35,95,73,52,0.00,40.00,7,3,15,0.05
2013-6-16,78,66,55,61,54,46,99,70,34,0.00,40.00,11,5,27,0.01
2013-6-17,58,51,41,51,46,39,97,83,59,0.00,40.00,4,3,12,0.01
2013-6-18,70,54,37,42,38,35,95,61,30,0.00,40.00,5,2,13,0.00
2013-6-19,78,61,44,48,42,38,83,53,26,0.00,40.00,7,4,15,0.00
2013-6-20,77,62,52,64,54,47,90,74,53,0.00,40.00,4,2,9,0.14
2013-6-22,69,64,61,62,60,58,96,89,76,0.00,40.00,5,3,13,0.01
2013-6-23,84,68,60,70,64,59,99,87,56,0.00,40.00,9,4,18,0.01
2013-6-24,87,74,65,67,64,60,99,73,44,0.00,40.00,6,3,13,0.01
2013-6-25,90,75,63,66,61,57,97,68,34,0.00,40.00,5,2,10,0.01
2013-6-26,86,72,62,70,66,61,99,81,58,0.00,40.00,7,4,22,0.62
2013-6-27,80,68,60,69,64,59,99,89,62,0.00,40.00,7,3,23,1.29
2013-6-28,64,61,58,61,60,58,99,95,89,0.00,40.00,6,3,13,1.03
2013-6-29,70,61,51,58,53,41,99,76,46,0.00,40.00,7,4,17,0.06
2013-6-30,78,64,46,47,44,41,87,53,28,0.00,40.00,5,2,12,0.01